Location: Conflandey
(47.7287°N, 6.0456°E)
Time: 02:56:44
(UTC+00:00)

CZ-4C R/B - Pass Details

Date: 24 October 2021
Orbit: 403 x 482 km, 97.7° (Epoch: 05 December)

Event Time Altitude Azimuth Distance (km) Brightness Sun altitude
Rises 18:31:40 0° 6° (N) 2,468 6.7 -20.9°
Reaches altitude 10° 18:33:49 10° 357° (N) 1,576 5.7 -21.3°
Maximum altitude 18:36:56 36° 290° (WNW) 712 4.4 -21.8°
Drops below altitude 10° 18:39:57 10° 222° (SW) 1,522 6.0 -22.3°
Sets 18:42:00 0° 213° (SSW) 2,368 6.9 -22.6°
